Location: Newark
(45.8667°N, 9.7333°E)
Time: 06:51:48
(UTC+00:00)

Vanguard 2 Rocket - Pass Details

Date: 01 February 2020
Orbit: 554 x 3327 km, 32.9° (Epoch: 20 February)

Event Time Altitude Azimuth Distance (km) Brightness Sun altitude
Rises 05:06:58 0° 245° (WSW) 2,741 - -17.0°
Reaches altitude 10° 05:09:47 10° 221° (SW) 1,953 - -16.5°
Exits shadow 05:09:54 10° 219° (SW) 1,931 8.3 -16.5°
Maximum altitude 05:12:25 16° 182° (S) 1,770 8.5 -16.1°
Drops below altitude 10° 05:15:32 10° 146° (SE) 2,395 9.7 -15.5°
Sets 05:19:37 0° 126° (SE) 3,772 11.3 -14.8°
